EW7004 Weather Reports


Display with metric or nautical units.
time (UTC)temp
F
wind
direction
speed
MPH
gust
MPH
rain 1hr
in
rain 24hr
in
rain mn
in
humidity
%
barometer
mb
20200711234918 104 288 1.0 13.0 0.00 0.00 0.00 18 1010.7
20200711234418 104 298 4.0 14.0 0.00 0.00 0.00 18 1010.8
20200711233920 104 296 6.0 14.0 0.00 0.00 0.00 17 1010.8
20200711233418 105 304 2.0 14.0 0.00 0.00 0.00 17 1010.9
20200711232918 105 289 1.0 12.0 0.00 0.00 0.00 16 1010.9
20200711232418 105 296 3.0 13.0 0.00 0.00 0.00 15 1011.0
20200711231920 104 300 0.0 13.0 0.00 0.00 0.00 15 1011.0
20200711231417 104 303 4.0 13.0 0.00 0.00 0.00 15 1011.0
20200711230920 104 249 2.0 12.0 0.00 0.00 0.00 15 1011.0
20200711230419 104 276 0.0 12.0 0.00 0.00 0.00 15 1011.1
20200711225918 104 289 3.0 12.0 0.00 0.00 0.00 15 1011.1
20200711225418 104 291 0.0 12.0 0.00 0.00 0.00 15 1011.1
20200711224920 104 280 2.0 12.0 0.00 0.00 0.00 15 1011.1
20200711224418 104 285 1.0 12.0 0.00 0.00 0.00 14 1011.2
20200711223918 105 285 3.0 12.0 0.00 0.00 0.00 14 1011.2
20200711223418 105 254 2.0 16.0 0.00 0.00 0.00 14 1011.2
20200711222918 106 283 2.0 16.0 0.00 0.00 0.00 14 1011.2
20200711222418 106 275 4.0 16.0 0.00 0.00 0.00 14 1011.2
20200711221918 106 288 2.0 14.0 0.00 0.00 0.00 14 1011.2
20200711221418 105 298 0.0 12.0 0.00 0.00 0.00 13 1011.2
20200711220918 105 268 6.0 12.0 0.00 0.00 0.00 13 1011.3
20200711220419 106 282 5.0 12.0 0.00 0.00 0.00 13 1011.4
20200711215918 105 274 2.0 12.0 0.00 0.00 0.00 13 1011.5
20200711215418 105 286 2.0 12.0 0.00 0.00 0.00 12 1011.5
20200711214918 105 294 3.0 18.0 0.00 0.00 0.00 12 1011.5
20200711214418 105 304 4.0 18.0 0.00 0.00 0.00 13 1011.6
20200711213918 105 285 7.0 18.0 0.00 0.00 0.00 12 1011.6
20200711213418 105 330 1.0 10.0 0.00 0.00 0.00 13 1011.6
20200711212918 105 297 1.0 10.0 0.00 0.00 0.00 14 1011.7
20200711212418 104 300 1.0 10.0 0.00 0.00 0.00 14 1011.8
20200711211918 104 296 0.0 10.0 0.00 0.00 0.00 14 1012.0
20200711211420 104 271 2.0 10.0 0.00 0.00 0.00 14 1012.0
20200711210919 104 281 1.0 9.0 0.00 0.00 0.00 14 1012.1
20200711210418 103 259 1.0 9.0 0.00 0.00 0.00 13 1012.1
20200711205918 103 293 1.0 9.0 0.00 0.00 0.00 14 1012.1
20200711205419 103 297 2.0 9.0 0.00 0.00 0.00 14 1012.1
20200711204918 103 302 0.0 8.0 0.00 0.00 0.00 14 1012.2
20200711204418 103 310 2.0 12.0 0.00 0.00 0.00 15 1012.3
20200711203918 103 317 1.0 12.0 0.00 0.00 0.00 14 1012.3
20200711203418 103 313 2.0 12.0 0.00 0.00 0.00 13 1012.5
20200711202919 102 309 1.0 12.0 0.00 0.00 0.00 14 1012.5
20200711202417 102 312 1.0 12.0 0.00 0.00 0.00 13 1012.7
20200711201918 102 316 1.0 12.0 0.00 0.00 0.00 12 1012.8
20200711201418 103 316 3.0 12.0 0.00 0.00 0.00 12 1012.9
20200711200918 102 261 0.0 8.0 0.00 0.00 0.00 12 1013.0
20200711200417 102 311 1.0 8.0 0.00 0.00 0.00 12 1013.2
20200711195918 101 304 0.0 3.0 0.00 0.00 0.00 13 1013.2
20200711195418 101 301 0.0 9.0 0.00 0.00 0.00 14 1013.3
20200711194920 101 303 1.0 16.0 0.00 0.00 0.00 13 1013.4
20200711194418 102 312 3.0 16.0 0.00 0.00 0.00 13 1013.6
20200711193918 101 306 1.0 16.0 0.00 0.00 0.00 15 1013.6
20200711193417 101 274 0.0 0.0 0.00 0.00 0.00 13 1013.7
20200711192919 100 274 0.0 0.0 0.00 0.00 0.00 14 1013.8
20200711192418 99 289 0.0 0.0 0.00 0.00 0.00 15 1013.9
20200711191919 100 290 0.0 0.0 0.00 0.00 0.00 16 1014.0
20200711191418 99 274 0.0 0.0 0.00 0.00 0.00 17 1014.0
20200711190920 99 275 0.0 0.0 0.00 0.00 0.00 17 1014.1
20200711190418 99 285 0.0 0.0 0.00 0.00 0.00 17 1014.1
20200711185918 98 287 0.0 0.0 0.00 0.00 0.00 17 1014.2
20200711185418 98 293 0.0 0.0 0.00 0.00 0.00 17 1014.2
20200711184918 99 296 0.0 0.0 0.00 0.00 0.00 16 1014.3
20200711184418 99 280 0.0 0.0 0.00 0.00 0.00 16 1014.3
20200711183918 98 278 0.0 0.0 0.00 0.00 0.00 16 1014.4
20200711183418 97 279 0.0 0.0 0.00 0.00 0.00 17 1014.3
20200711182918 97 279 0.0 0.0 0.00 0.00 0.00 17 1014.3
20200711182419 97 278 0.0 1.0 0.00 0.00 0.00 18 1014.4
20200711181918 96 278 0.0 1.0 0.00 0.00 0.00 18 1014.4
20200711181417 96 280 0.0 1.0 0.00 0.00 0.00 19 1014.3
20200711180918 96 303 0.0 1.0 0.00 0.00 0.00 19 1014.3
20200711180418 95 301 0.0 0.0 0.00 0.00 0.00 19 1014.4
20200711175918 95 301 0.0 1.0 0.00 0.00 0.00 19 1014.4
20200711175418 95 299 0.0 1.0 0.00 0.00 0.00 19 1014.3
20200711174918 94 299 0.0 1.0 0.00 0.00 0.00 19 1014.2
20200711174418 94 300 0.0 0.0 0.00 0.00 0.00 20 1014.3
20200711173918 94 297 0.0 0.0 0.00 0.00 0.00 20 1014.3
20200711173418 94 296 0.0 0.0 0.00 0.00 0.00 20 1014.2
20200711172917 94 297 0.0 0.0 0.00 0.00 0.00 21 1014.3
20200711172418 93 294 0.0 0.0 0.00 0.00 0.00 20 1014.5
20200711171918 92 294 0.0 0.0 0.00 0.00 0.00 20 1014.5
20200711171417 92 294 0.0 0.0 0.00 0.00 0.00 20 1014.5
20200711170918 91 294 0.0 0.0 0.00 0.00 0.00 23 1014.4
20200711170418 91 294 0.0 0.0 0.00 0.00 0.00 23 1014.4
20200711165918 91 295 0.0 0.0 0.00 0.00 0.00 24 1014.3
20200711165420 90 295 0.0 0.0 0.00 0.00 0.00 24 1014.3
20200711164917 89 295 0.0 0.0 0.00 0.00 0.00 24 1014.3
20200711164418 89 296 0.0 0.0 0.00 0.00 0.00 23 1014.3
20200711163918 89 290 0.0 0.0 0.00 0.00 0.00 24 1014.3
20200711163418 88 277 0.0 0.0 0.00 0.00 0.00 25 1014.3
20200711162918 88 277 0.0 0.0 0.00 0.00 0.00 25 1014.3
20200711162418 87 277 0.0 0.0 0.00 0.00 0.00 25 1014.4
20200711161918 87 277 0.0 0.0 0.00 0.00 0.00 26 1014.3
20200711161418 86 277 0.0 0.0 0.00 0.00 0.00 27 1014.3
20200711160918 86 277 0.0 0.0 0.00 0.00 0.00 28 1014.4
20200711160418 85 277 0.0 0.0 0.00 0.00 0.00 28 1014.4
20200711155921 84 277 0.0 0.0 0.00 0.00 0.00 30 1014.4
20200711155418 83 277 0.0 0.0 0.00 0.00 0.00 30 1014.6
20200711154917 83 277 0.0 0.0 0.00 0.00 0.00 32 1014.6
20200711154420 82 277 0.0 0.0 0.00 0.00 0.00 30 1014.6
20200711153918 81 277 0.0 0.0 0.00 0.00 0.00 30 1014.6
20200711153419 81 277 0.0 0.0 0.00 0.00 0.00 29 1014.6
20200711152917 81 270 0.0 0.0 0.00 0.00 0.00 28 1014.6
20200711152420 81 249 0.0 0.0 0.00 0.00 0.00 31 1014.7
20200711151917 80 240 0.0 0.0 0.00 0.00 0.00 31 1014.8
20200711151418 80 240 0.0 0.0 0.00 0.00 0.00 31 1014.8
20200711150918 80 225 0.0 0.0 0.00 0.00 0.00 31 1014.8
20200711150418 79 225 0.0 0.0 0.00 0.00 0.00 31 1014.9
20200711145918 79 225 0.0 0.0 0.00 0.00 0.00 32 1014.9
20200711145418 78 225 0.0 0.0 0.00 0.00 0.00 34 1015.0
20200711144919 78 225 0.0 0.0 0.00 0.00 0.00 34 1015.0
20200711144418 78 225 0.0 0.0 0.00 0.00 0.00 34 1015.0
20200711143917 77 225 0.0 0.0 0.00 0.00 0.00 35 1015.0
20200711143418 77 225 0.0 0.0 0.00 0.00 0.00 34 1015.0
20200711142918 76 225 0.0 0.0 0.00 0.00 0.00 35 1015.0
20200711142417 75 225 0.0 0.0 0.00 0.00 0.00 37 1015.0
20200711141918 74 225 0.0 0.0 0.00 0.00 0.00 37 1015.0
20200711141418 74 225 0.0 0.0 0.00 0.00 0.00 39 1014.9
20200711140917 73 225 0.0 0.0 0.00 0.00 0.00 39 1014.9
20200711140419 73 225 0.0 0.0 0.00 0.00 0.00 40 1014.8
20200711135918 72 225 0.0 0.0 0.00 0.00 0.00 40 1014.7
20200711135418 72 225 0.0 0.0 0.00 0.00 0.00 40 1014.7
20200711134918 72 225 0.0 0.0 0.00 0.00 0.00 40 1014.5
20200711134418 72 225 0.0 0.0 0.00 0.00 0.00 39 1014.6
20200711133919 71 225 0.0 0.0 0.00 0.00 0.00 39 1014.7
20200711133417 71 225 0.0 0.0 0.00 0.00 0.00 39 1014.7
20200711132918 71 225 0.0 0.0 0.00 0.00 0.00 40 1014.7
20200711132417 71 225 0.0 0.0 0.00 0.00 0.00 39 1014.7
20200711131918 71 225 0.0 0.0 0.00 0.00 0.00 39 1014.7
20200711131417 71 225 0.0 0.0 0.00 0.00 0.00 39 1014.7
20200711130918 71 225 0.0 0.0 0.00 0.00 0.00 40 1014.6
20200711130418 71 225 0.0 0.0 0.00 0.00 0.00 40 1014.5
20200711125917 71 225 0.0 0.0 0.00 0.00 0.00 40 1014.4
20200711125418 71 225 0.0 0.0 0.00 0.00 0.00 39 1014.4
20200711124920 72 225 0.0 0.0 0.00 0.00 0.00 39 1014.3
20200711124419 72 225 0.0 0.0 0.00 0.00 0.00 39 1014.3
20200711123919 72 225 0.0 0.0 0.00 0.00 0.00 37 1014.2
20200711123419 72 225 0.0 0.0 0.00 0.00 0.00 37 1014.2
20200711122919 72 225 0.0 0.0 0.00 0.00 0.00 36 1014.0
20200711122418 72 225 0.0 0.0 0.00 0.00 0.00 36 1014.0
20200711121918 72 225 0.0 0.0 0.00 0.00 0.00 37 1014.0
20200711121419 72 225 0.0 0.0 0.00 0.00 0.00 37 1014.0
20200711120918 72 227 0.0 0.0 0.00 0.00 0.00 36 1013.9
20200711120419 72 227 0.0 0.0 0.00 0.00 0.00 37 1013.9
20200711115919 72 227 0.0 0.0 0.00 0.00 0.00 36 1013.7
20200711115419 72 227 0.0 0.0 0.00 0.00 0.00 36 1013.7
20200711114920 72 227 0.0 0.0 0.00 0.00 0.00 35 1013.6
20200711114420 72 227 0.0 0.0 0.00 0.00 0.00 36 1013.7
20200711113918 72 227 0.0 0.0 0.00 0.00 0.00 36 1013.7
20200711113419 73 227 0.0 0.0 0.00 0.00 0.00 36 1013.7
20200711112918 73 227 0.0 0.0 0.00 0.00 0.00 35 1013.7
20200711112420 73 227 0.0 0.0 0.00 0.00 0.00 35 1013.6
20200711111919 73 227 0.0 0.0 0.00 0.00 0.00 34 1013.6
20200711111419 73 227 0.0 0.0 0.00 0.00 0.00 35 1013.6
20200711110920 73 227 0.0 0.0 0.00 0.00 0.00 34 1013.6
20200711110419 73 227 0.0 0.0 0.00 0.00 0.00 34 1013.6
20200711105918 73 227 0.0 0.0 0.00 0.00 0.00 34 1013.6
20200711105421 73 227 0.0 0.0 0.00 0.00 0.00 34 1013.6
20200711104919 73 227 0.0 0.0 0.00 0.00 0.00 34 1013.7
20200711104420 73 227 0.0 0.0 0.00 0.00 0.00 34 1013.6
20200711103919 74 227 0.0 0.0 0.00 0.00 0.00 34 1013.6
20200711103418 74 227 0.0 0.0 0.00 0.00 0.00 34 1013.7
20200711102919 74 227 0.0 0.0 0.00 0.00 0.00 34 1013.8
20200711102419 74 227 0.0 0.0 0.00 0.00 0.00 34 1013.8
20200711101919 74 227 0.0 0.0 0.00 0.00 0.00 33 1013.8
20200711101419 74 227 0.0 0.0 0.00 0.00 0.00 33 1013.8
20200711100919 75 227 0.0 0.0 0.00 0.00 0.00 32 1013.7
20200711100419 75 227 0.0 0.0 0.00 0.00 0.00 32 1013.8
20200711095920 75 227 0.0 0.0 0.00 0.00 0.00 32 1013.7
20200711095419 75 227 0.0 0.0 0.00 0.00 0.00 32 1013.7
20200711094918 75 227 0.0 0.0 0.00 0.00 0.00 32 1013.7
20200711094419 75 227 0.0 0.0 0.00 0.00 0.00 32 1013.7
20200711093919 76 227 0.0 0.0 0.00 0.00 0.00 32 1013.7
20200711093419 76 227 0.0 0.0 0.00 0.00 0.00 32 1013.7
20200711092921 76 227 0.0 0.0 0.00 0.00 0.00 32 1013.7
20200711092420 76 227 0.0 0.0 0.00 0.00 0.00 31 1013.7
20200711091924 76 227 0.0 0.0 0.00 0.00 0.00 31 1013.7
20200711091420 76 227 0.0 0.0 0.00 0.00 0.00 31 1013.7
20200711090918 76 227 0.0 0.0 0.00 0.00 0.00 31 1013.7
20200711090419 76 227 0.0 0.0 0.00 0.00 0.00 31 1013.8
20200711085919 77 227 0.0 0.0 0.00 0.00 0.00 30 1013.8
20200711085418 77 227 0.0 0.0 0.00 0.00 0.00 30 1013.7
20200711084919 77 227 0.0 0.0 0.00 0.00 0.00 30 1013.8
20200711084419 77 227 0.0 0.0 0.00 0.00 0.00 30 1013.8
20200711083918 77 227 0.0 0.0 0.00 0.00 0.00 30 1013.9
20200711083419 77 227 0.0 0.0 0.00 0.00 0.00 30 1013.9
20200711082919 78 227 0.0 0.0 0.00 0.00 0.00 30 1013.8
20200711082419 78 227 0.0 0.0 0.00 0.00 0.00 30 1013.8
20200711081920 78 227 0.0 0.0 0.00 0.00 0.00 30 1013.8
20200711081419 78 227 0.0 0.0 0.00 0.00 0.00 30 1013.8
20200711080919 78 227 0.0 0.0 0.00 0.00 0.00 29 1013.9
20200711080419 79 227 0.0 0.0 0.00 0.00 0.00 29 1014.0
20200711075920 79 227 0.0 0.0 0.00 0.00 0.00 29 1013.9
20200711075419 79 227 0.0 0.0 0.00 0.00 0.00 29 1013.9
20200711074919 79 227 0.0 0.0 0.00 0.00 0.00 29 1013.9
20200711074418 79 227 0.0 0.0 0.00 0.00 0.00 28 1013.9
20200711073919 79 227 0.0 0.0 0.00 0.00 0.00 28 1013.9
20200711073419 79 227 0.0 0.0 0.00 0.00 0.00 28 1013.9
20200711072920 79 227 0.0 0.0 0.00 0.00 0.00 29 1014.0
20200711072419 80 227 0.0 0.0 0.00 0.00 0.00 29 1013.9
20200711071918 80 227 0.0 0.0 0.00 0.00 0.00 29 1013.9
20200711071418 80 227 0.0 0.0 0.00 0.00 0.00 30 1013.9
20200711070922 80 227 0.0 0.0 0.00 0.00 0.00 29 1013.9
20200711070419 80 227 0.0 0.0 0.00 0.00 0.00 30 1013.9
20200711065919 80 227 0.0 0.0 0.00 0.00 0.00 29 1013.9
20200711065420 80 227 0.0 0.0 0.00 0.00 0.00 30 1013.9
20200711064920 80 227 0.0 0.0 0.00 0.00 0.00 31 1013.9
20200711064419 80 227 0.0 0.0 0.00 0.00 0.00 31 1013.9
20200711063919 80 227 0.0 0.0 0.00 0.00 0.00 31 1013.9
20200711063419 81 227 0.0 0.0 0.00 0.00 0.00 32 1013.9
20200711062919 81 227 0.0 0.0 0.00 0.00 0.00 31 1013.8
20200711062419 81 227 0.0 0.0 0.00 0.00 0.00 30 1013.8
20200711061919 81 227 0.0 0.0 0.00 0.00 0.00 31 1013.8
20200711061418 81 227 0.0 0.0 0.00 0.00 0.00 30 1013.8
20200711060918 81 227 0.0 0.0 0.00 0.00 0.00 29 1013.8
20200711060419 82 227 0.0 0.0 0.00 0.00 0.00 28 1013.8
20200711055919 82 227 0.0 0.0 0.00 0.00 0.00 28 1013.8
20200711055421 82 227 0.0 0.0 0.00 0.00 0.00 28 1013.8
20200711054920 82 227 0.0 1.0 0.00 0.00 0.00 28 1013.8
20200711054420 82 227 0.0 1.0 0.00 0.00 0.00 28 1013.7
20200711053919 83 227 0.0 1.0 0.00 0.00 0.00 28 1013.6
20200711053419 83 227 0.0 1.0 0.00 0.00 0.00 27 1013.5
20200711052919 83 227 0.0 0.0 0.00 0.00 0.00 26 1013.5
20200711052419 83 227 0.0 0.0 0.00 0.00 0.00 27 1013.4
20200711051919 83 227 0.0 0.0 0.00 0.00 0.00 27 1013.5
20200711051419 84 227 0.0 0.0 0.00 0.00 0.00 27 1013.6
20200711050919 84 227 0.0 0.0 0.00 0.00 0.00 26 1013.6
20200711050419 84 227 0.0 1.0 0.00 0.00 0.00 25 1013.6
20200711045918 84 227 0.0 2.0 0.00 0.00 0.00 24 1013.5
20200711045419 85 227 0.0 2.0 0.00 0.00 0.00 23 1013.5
20200711044919 85 228 0.0 2.0 0.00 0.00 0.00 22 1013.5
20200711044419 85 228 0.0 1.0 0.00 0.00 0.00 21 1013.5
20200711043918 86 228 0.0 2.0 0.00 0.00 0.00 20 1013.4
20200711043419 86 228 0.0 2.0 0.00 0.00 0.00 18 1013.3
20200711042919 86 228 0.0 2.0 0.00 0.00 0.00 18 1013.3
20200711042419 86 228 0.0 1.0 0.00 0.00 0.00 17 1013.3
20200711041920 87 228 0.0 2.0 0.00 0.00 0.00 17 1013.2
20200711041419 87 228 0.0 2.0 0.00 0.00 0.00 17 1013.1
20200711040918 87 228 0.0 3.0 0.00 0.00 0.00 16 1013.1
20200711040419 87 228 0.0 3.0 0.00 0.00 0.00 16 1013.0
20200711035919 88 228 1.0 3.0 0.00 0.00 0.00 16 1013.0
20200711035418 88 226 0.0 2.0 0.00 0.00 0.00 15 1012.9
20200711034919 88 229 0.0 0.0 0.00 0.00 0.00 14 1012.9
20200711034419 88 219 0.0 0.0 0.00 0.00 0.00 13 1012.8
20200711033920 89 216 0.0 0.0 0.00 0.00 0.00 13 1012.8
20200711033419 89 229 0.0 0.0 0.00 0.00 0.00 14 1012.7
20200711032918 89 225 0.0 1.0 0.00 0.00 0.00 14 1012.6
20200711032419 90 225 0.0 3.0 0.00 0.00 0.00 13 1012.6
20200711031919 90 225 0.0 3.0 0.00 0.00 0.00 14 1012.6
20200711031418 90 220 0.0 5.0 0.00 0.00 0.00 13 1012.5
20200711030919 90 220 1.0 6.0 0.00 0.00 0.00 13 1012.5
20200711030418 91 224 1.0 6.0 0.00 0.00 0.00 13 1012.5
20200711025920 91 226 1.0 6.0 0.00 0.00 0.00 13 1012.4
20200711025421 91 216 1.0 3.0 0.00 0.00 0.00 13 1012.4
20200711024918 92 224 1.0 3.0 0.00 0.00 0.00 13 1012.5
20200711024417 92 208 0.0 5.0 0.00 0.00 0.00 12 1012.4
20200711023918 92 213 1.0 5.0 0.00 0.00 0.00 13 1012.4
20200711023418 93 213 2.0 5.0 0.00 0.00 0.00 13 1012.4
20200711022918 93 223 1.0 6.0 0.00 0.00 0.00 12 1012.4
20200711022418 93 224 0.0 6.0 0.00 0.00 0.00 12 1012.4
20200711021918 93 228 1.0 6.0 0.00 0.00 0.00 11 1012.4
20200711021418 93 228 1.0 6.0 0.00 0.00 0.00 12 1012.4
20200711020918 93 223 1.0 6.0 0.00 0.00 0.00 12 1012.3
20200711020418 94 231 0.0 1.0 0.00 0.00 0.00 12 1012.3
20200711015918 94 220 0.0 2.0 0.00 0.00 0.00 12 1012.2
20200711015418 94 213 0.0 3.0 0.00 0.00 0.00 13 1012.3
20200711014918 94 222 0.0 6.0 0.00 0.00 0.00 12 1012.2
20200711014418 94 229 0.0 9.0 0.00 0.00 0.00 13 1012.3
20200711013920 94 223 1.0 12.0 0.00 0.00 0.00 12 1012.2
20200711013418 94 220 4.0 15.0 0.00 0.00 0.00 13 1012.2
20200711012918 94 203 1.0 15.0 0.00 0.00 0.00 13 1012.2
20200711012418 94 211 3.0 15.0 0.00 0.00 0.00 13 1012.2
20200711011917 94 216 4.0 14.0 0.00 0.00 0.00 12 1012.1
20200711011418 95 226 2.0 12.0 0.00 0.00 0.00 12 1012.2
20200711010918 95 222 3.0 12.0 0.00 0.00 0.00 12 1012.1
20200711010417 95 209 3.0 13.0 0.00 0.00 0.00 12 1012.1
20200711005917 96 198 2.0 13.0 0.00 0.00 0.00 12 1012.0
20200711005418 96 220 2.0 13.0 0.00 0.00 0.00 12 1012.0
20200711004918 96 223 0.0 15.0 0.00 0.00 0.00 11 1012.1
20200711004418 96 208 2.0 15.0 0.00 0.00 0.00 11 1012.1
20200711003918 97 205 5.0 15.0 0.00 0.00 0.00 11 1012.0
20200711003418 97 227 2.0 14.0 0.00 0.00 0.00 11 1012.0
20200711002917 98 217 3.0 14.0 0.00 0.00 0.00 10 1012.1
20200711002418 98 225 3.0 14.0 0.00 0.00 0.00 10 1012.1
20200711001918 99 206 6.0 14.0 0.00 0.00 0.00 11 1012.0
20200711001417 99 224 5.0 14.0 0.00 0.00 0.00 10 1012.0
20200711000920 100 211 3.0 14.0 0.00 0.00 0.00 10 1012.0
20200711000419 101 218 6.0 15.0 0.00 0.00 0.00 10 1012.0
20200710235918 101 213 2.0 15.0 0.00 0.00 0.00 9 1012.0
20200710235417 102 201 3.0 15.0 0.00 0.00 0.00 9 1012.1